Weather History for Fairbanks Eiels, AK

Change the Weather History Date:

Monday, December 24, 2012

  Actual Average Record
Temperature  
Mean Temperature -10 °F -  
Max Temperature 15 °F 3 °F 57 °F (1998)
Min Temperature -35 °F -10 °F -53 °F (1961)
Degree Days  
Heating Degree Days 76    
Moisture  
Dew Point -14 °F    
Average Humidity 74    
Maximum Humidity 87    
Minimum Humidity 56    
Precipitation  
Precipitation 0.00 in - - ()
Sea Level Pressure  
Sea Level Pressure 29.82 in    
Wind  
Wind Speed 2 mph (NE)    
Max Wind Speed 14 mph    
Max Gust Speed 22 mph    
Visibility 10 miles    
Events Snow    
Averages and records for this station are not official NWS values.
T = Trace of Precipitation, MM = Missing Value Source: NWS Daily Summary

Daily Weather History Graph

Daily Weather History Graph

Search for Another Location

Airport:

Trip Planner

Search our weather history database for the weather conditions in past years. The results will help you decide how hot, cold, wet, or windy it might be!

Date:

Astronomy

Dec. 24, 2012 Rise Set
Actual Time 10:53 AM AKST 2:43 PM AKST
Civil Twilight 9:29 AM AKST 4:07 PM AKST
Nautical Twilight 8:18 AM AKST 5:18 PM AKST
Astronomical Twilight 7:17 AM AKST 6:19 PM AKST
Moon 12:58 PM AKST (12/24) 6:55 AM AKST (12/24)
Length of Visible Light 6h 37m
Length of Day
3h 50m
Waxing Gibbous, 89% of the Moon is Illuminated
Dec 24
Waxing Gibbous
Dec 28
Full
Jan 4
Last Quarter
Jan 11
New
Jan 18
First Quarter

Hourly Weather History & Observations

Time (AKST) Temp. Windchill Dew Point Humidity Pressure Visibility Wind Dir Wind Speed Gust Speed Precip Events Conditions
12:55 AM -34.4 °F - - N/A% 29.86 in 10.0 mi Calm Calm - N/A   Clear
1:55 AM -34.4 °F - - N/A% 29.85 in 10.0 mi Calm Calm - 0.00 in   Clear
2:55 AM -34.8 °F - - N/A% 29.84 in 10.0 mi Calm Calm - N/A   Clear
3:55 AM -34.6 °F - - N/A% 29.84 in 10.0 mi Calm Calm - 0.00 in Snow Light Snow
4:55 AM -35.1 °F - - N/A% 29.84 in 10.0 mi Calm Calm - 0.00 in   Clear
5:55 AM -33.3 °F - - N/A% 29.83 in 10.0 mi Calm Calm - N/A   Clear
6:55 AM -33.5 °F - - N/A% 29.83 in 10.0 mi Calm Calm - N/A   Clear
7:55 AM -32.6 °F - - N/A% 29.83 in 10.0 mi Calm Calm - N/A   Clear
8:55 AM -30.3 °F - - N/A% 29.83 in 10.0 mi Calm Calm - N/A   Clear
9:55 AM -26.1 °F -40.4 °F -29.9 °F 82% 29.83 in 10.0 mi NNW 4.6 mph - N/A   Clear
10:55 AM -24.9 °F - -29.9 °F 77% 29.83 in 9.0 mi Calm Calm - 0.00 in   Clear
11:55 AM -22.0 °F - -28.7 °F 71% 29.84 in 10.0 mi Calm Calm - 0.00 in   Clear
12:55 PM -21.1 °F -36.6 °F -27.4 °F 73% 29.82 in 10.0 mi NNW 5.8 mph - 0.00 in Snow Light Snow
1:55 PM -20.6 °F -37.7 °F -26.9 °F 73% 29.82 in 10.0 mi NNW 6.9 mph - 0.00 in   Clear
2:55 PM -17.7 °F -28.0 °F -23.8 °F 74% 29.81 in 10.0 mi North 3.5 mph - N/A   Clear
3:55 PM -17.1 °F -29.9 °F -23.1 °F 74% 29.81 in 10.0 mi North 4.6 mph - 0.00 in   Clear
4:55 PM -15.9 °F -34.8 °F -21.8 °F 74% 29.82 in 10.0 mi North 9.2 mph - N/A   Scattered Clouds
5:55 PM -16.1 °F - -22.2 °F 74% 29.82 in 10.0 mi Calm Calm - N/A   Clear
6:55 PM -0.2 °F -10.1 °F -4.5 °F 82% 29.80 in 10.0 mi South 4.6 mph - N/A   Partly Cloudy
7:55 PM 10.4 °F -2.4 °F 7.0 °F 86% 29.79 in 10.0 mi SE 9.2 mph - 0.00 in   Clear
8:55 PM 10.6 °F 1.0 °F 7.3 °F 87% 29.79 in 10.0 mi Variable 5.8 mph - N/A   Clear
9:55 PM 13.5 °F -1.5 °F 3.9 °F 66% 29.79 in 10.0 mi SE 13.8 mph 21.9 mph 0.00 in   Partly Cloudy
10:55 PM 14.0 °F 0.5 °F 1.8 °F 58% 29.79 in 10.0 mi SSE 11.5 mph - N/A   Clear
11:55 PM 15.6 °F 1.8 °F 2.3 °F 56% 29.77 in 10.0 mi SE 12.7 mph - N/A   Partly Cloudy